TimeCDT,TemperatureF,Dew PointF,Humidity,Sea Level PressureIn,VisibilityMPH,Wind Direction,Wind SpeedMPH,Gust SpeedMPH,PrecipitationIn,Events,Conditions,WindDirDegrees,DateUTC
12:15 AM,83.3,61.9,48,29.94,10.0,South,13.8,-,N/A,,Clear,190,2013-06-26 05:15:00
12:35 AM,82.8,61.9,49,29.94,10.0,South,13.8,21.9,N/A,,Clear,190,2013-06-26 05:35:00
12:55 AM,81.9,62.1,51,29.95,10.0,South,13.8,-,N/A,,Clear,190,2013-06-26 05:55:00
1:15 AM,81.1,61.9,52,29.95,10.0,SSW,15.0,18.4,N/A,,Clear,200,2013-06-26 06:15:00
1:35 AM,80.6,61.9,53,29.95,10.0,South,16.1,-,N/A,,Clear,190,2013-06-26 06:35:00
1:55 AM,79.7,62.1,55,29.95,10.0,South,13.8,18.4,N/A,,Clear,190,2013-06-26 06:55:00
2:15 AM,79.0,62.2,56,29.95,10.0,South,12.7,16.1,N/A,,Clear,190,2013-06-26 07:15:00
2:35 AM,78.8,62.2,57,29.95,10.0,South,12.7,18.4,N/A,,Clear,190,2013-06-26 07:35:00
2:55 AM,78.1,62.4,58,29.95,10.0,South,12.7,-,N/A,,Clear,190,2013-06-26 07:55:00
3:15 AM,77.9,62.6,59,29.96,10.0,South,10.4,-,N/A,,Clear,190,2013-06-26 08:15:00
3:35 AM,77.0,62.8,61,29.96,10.0,South,8.1,-,N/A,,Clear,190,2013-06-26 08:35:00
3:55 AM,77.0,62.8,61,29.96,10.0,South,8.1,-,N/A,,Clear,190,2013-06-26 08:55:00
4:15 AM,76.1,62.8,63,29.96,10.0,South,6.9,-,N/A,,Clear,190,2013-06-26 09:15:00
4:35 AM,76.1,62.8,63,29.95,10.0,South,10.4,-,N/A,,Clear,190,2013-06-26 09:35:00
4:55 AM,75.7,62.8,64,29.95,10.0,South,10.4,-,N/A,,Clear,190,2013-06-26 09:55:00
5:15 AM,75.2,62.6,65,29.96,10.0,SSW,8.1,-,N/A,,Clear,200,2013-06-26 10:15:00
5:35 AM,75.2,62.6,65,29.96,10.0,SSW,8.1,-,N/A,,Clear,200,2013-06-26 10:35:00
5:55 AM,74.8,62.2,65,29.96,10.0,SSW,6.9,-,N/A,,Clear,200,2013-06-26 10:55:00
6:15 AM,74.3,62.2,66,29.96,10.0,SSW,6.9,-,N/A,,Clear,200,2013-06-26 11:15:00
6:35 AM,73.4,62.1,68,29.96,10.0,South,5.8,-,N/A,,Clear,190,2013-06-26 11:35:00
6:55 AM,73.0,61.9,68,29.96,10.0,South,6.9,-,N/A,,Clear,190,2013-06-26 11:55:00
7:15 AM,72.9,61.9,68,29.96,10.0,South,6.9,-,N/A,,Clear,190,2013-06-26 12:15:00
7:35 AM,73.9,61.9,66,29.97,10.0,South,8.1,-,N/A,,Clear,190,2013-06-26 12:35:00
7:55 AM,75.4,61.9,63,29.97,10.0,South,8.1,-,N/A,,Clear,190,2013-06-26 12:55:00
8:15 AM,77.0,61.9,59,29.97,10.0,South,10.4,-,N/A,,Clear,190,2013-06-26 13:15:00
8:35 AM,78.8,62.1,56,29.97,10.0,South,10.4,-,N/A,,Clear,190,2013-06-26 13:35:00
8:55 AM,80.1,62.1,54,29.98,10.0,SSW,10.4,-,N/A,,Clear,200,2013-06-26 13:55:00
9:15 AM,82.2,62.1,50,29.98,10.0,SSW,10.4,-,N/A,,Clear,210,2013-06-26 14:15:00
9:55 AM,87.3,60.8,41,29.98,10.0,SSW,9.2,-,N/A,,Clear,210,2013-06-26 14:55:00
10:15 AM,88.9,58.8,36,29.98,10.0,SW,10.4,-,N/A,,Clear,220,2013-06-26 15:15:00
10:35 AM,90.5,57.4,33,29.98,10.0,SW,8.1,16.1,N/A,,Clear,230,2013-06-26 15:35:00
10:55 AM,92.7,56.7,30,29.98,10.0,West,10.4,-,N/A,,Clear,260,2013-06-26 15:55:00
11:15 AM,93.7,54.9,27,29.99,10.0,WSW,9.2,-,N/A,,Clear,250,2013-06-26 16:15:00
11:35 AM,95.7,51.3,22,29.99,10.0,WSW,9.2,-,N/A,,Clear,240,2013-06-26 16:35:00
11:55 AM,96.8,47.7,19,29.99,10.0,West,8.1,-,N/A,,Clear,260,2013-06-26 16:55:00
12:15 PM,98.1,42.4,15,29.99,10.0,WSW,8.1,16.1,N/A,,Clear,240,2013-06-26 17:15:00
12:35 PM,98.6,41.2,14,29.99,10.0,West,6.9,-,N/A,,Clear,260,2013-06-26 17:35:00
12:55 PM,100.2,39.4,12,29.98,10.0,West,5.8,-,N/A,,Clear,260,2013-06-26 17:55:00
1:15 PM,100.8,39.2,12,29.98,10.0,SW,4.6,-,N/A,,Clear,230,2013-06-26 18:15:00
1:35 PM,101.3,37.9,11,29.98,10.0,West,5.8,-,N/A,,Clear,280,2013-06-26 18:35:00
1:55 PM,102.4,37.6,11,29.97,10.0,WSW,6.9,-,N/A,,Clear,240,2013-06-26 18:55:00
2:15 PM,102.9,37.8,11,29.97,10.0,South,5.8,-,N/A,,Clear,190,2013-06-26 19:15:00
2:35 PM,104.5,39.0,11,29.97,10.0,SSW,6.9,-,N/A,,Clear,200,2013-06-26 19:35:00
2:55 PM,104.0,40.3,11,29.96,10.0,South,9.2,-,N/A,,Clear,190,2013-06-26 19:55:00
3:15 PM,105.3,39.2,10,29.95,10.0,SSE,3.5,16.1,N/A,,Clear,150,2013-06-26 20:15:00
3:35 PM,105.4,38.5,10,29.95,10.0,SSW,10.4,-,N/A,,Clear,200,2013-06-26 20:35:00
3:55 PM,106.2,37.9,10,29.95,10.0,South,11.5,16.1,N/A,,Clear,190,2013-06-26 20:55:00
4:15 PM,105.6,38.3,10,29.93,10.0,South,3.5,-,N/A,,Clear,180,2013-06-26 21:15:00
4:35 PM,107.1,38.5,10,29.93,10.0,South,8.1,-,N/A,,Clear,190,2013-06-26 21:35:00
4:55 PM,105.8,37.8,10,29.92,10.0,SW,4.6,-,N/A,,Clear,220,2013-06-26 21:55:00
5:15 PM,106.5,37.9,10,29.92,10.0,SSW,9.2,18.4,N/A,,Clear,210,2013-06-26 22:15:00
5:35 PM,106.3,37.4,9,29.91,10.0,SSW,11.5,17.3,N/A,,Clear,200,2013-06-26 22:35:00
5:55 PM,105.4,36.9,9,29.91,10.0,SE,8.1,-,N/A,,Clear,140,2013-06-26 22:55:00
6:15 PM,105.8,36.0,9,29.91,10.0,Calm,Calm,-,N/A,,Clear,0,2013-06-26 23:15:00
6:35 PM,105.1,35.6,9,29.91,10.0,SE,3.5,-,N/A,,Clear,140,2013-06-26 23:35:00
6:55 PM,105.4,36.0,9,29.90,10.0,South,10.4,16.1,N/A,,Clear,180,2013-06-26 23:55:00
7:15 PM,105.1,36.0,9,29.90,10.0,South,11.5,18.4,N/A,,Clear,190,2013-06-27 00:15:00
7:35 PM,104.4,35.8,9,29.90,10.0,South,4.6,-,N/A,,Clear,170,2013-06-27 00:35:00
7:55 PM,103.6,36.9,10,29.91,10.0,SSW,10.4,-,N/A,,Clear,200,2013-06-27 00:55:00
8:15 PM,102.6,36.1,10,29.91,10.0,SSW,5.8,-,N/A,,Clear,200,2013-06-27 01:15:00
8:35 PM,100.9,35.8,10,29.91,10.0,South,8.1,-,N/A,,Clear,190,2013-06-27 01:35:00
8:55 PM,97.0,36.3,12,29.92,10.0,South,4.6,-,N/A,,Clear,170,2013-06-27 01:55:00
9:15 PM,94.5,37.0,13,29.92,10.0,South,5.8,-,N/A,,Clear,190,2013-06-27 02:15:00
9:35 PM,92.7,42.1,17,29.93,10.0,SE,11.5,-,N/A,,Clear,130,2013-06-27 02:35:00
9:55 PM,93.4,50.4,23,29.94,10.0,SE,10.4,16.1,N/A,,Clear,140,2013-06-27 02:55:00
10:15 PM,91.8,51.6,25,29.95,10.0,SSE,9.2,-,N/A,,Clear,150,2013-06-27 03:15:00
10:35 PM,90.7,53.2,28,29.97,10.0,SSE,10.4,-,N/A,,Clear,160,2013-06-27 03:35:00
10:55 PM,90.1,53.8,29,29.97,10.0,South,13.8,-,N/A,,Clear,170,2013-06-27 03:55:00
11:15 PM,91.4,58.1,32,29.98,10.0,South,17.3,24.2,N/A,,Clear,170,2013-06-27 04:15:00
11:35 PM,90.1,59.0,35,29.99,10.0,South,17.3,23.0,N/A,,Clear,180,2013-06-27 04:35:00
11:55 PM,89.2,59.0,36,30.00,7.0,South,18.4,-,N/A,,Clear,180,2013-06-27 04:55:00